Location: Balagbag Mahabang Kahoy
(14.1562°N, 120.9200°E)
Time: 04:59:06
(UTC+00:00)

Cosmos 2278 Rocket - Pass Details

Date: 16 January 2026
Orbit: 839 x 846 km, 71.0° (Epoch: 15 February)

Event Time Altitude Azimuth Distance (km) Brightness Sun altitude
Rises 19:46:23 0° 178° (S) 3,378 5.5 -37.3°
Reaches altitude 10° 19:49:00 10° 169° (S) 2,445 4.8 -36.7°
Maximum altitude 19:54:05 36° 104° (ESE) 1,294 3.5 -35.5°
Drops below altitude 10° 19:59:11 10° 38° (NE) 2,448 4.8 -34.3°
Sets 20:01:47 0° 30° (NNE) 3,384 5.5 -33.7°
